Hourly Weather Roundup
Issued by NWS

Current Version | Previous Version | Text Only | Print | Product List | Glossary On
Versions: 1 2 3 4 5 6 7 8 9 10 11 12 13 14 15 16 17 18 19 20 21 22 23 24 25 26 27 28 29 30 31 32 33 34 35 36 37 38 39 40 41 42 43 44 45 46 47 48 49 50
979
NZUS43 KILX 101010
HWRCRS

CRS HOURLY WEATHER ROUNDUP
NATIONAL WEATHER SERVICE, LINCOLN IL
400 AM CST WED FEB 10 2016


CITY           SKY/WX    TMP DP  RH WIND       PRES   REMARKS
CHAMPAIGN      CLEAR      9   3  77 W12       30.03S WCI  -6
LAWRENCEVILLE  CLOUDY    14   6  70 W16       30.09R WCI  -2
PEORIA         CLEAR     10   1  67 NW8       30.08R WCI  -2
SPRINGFIELD    PTCLDY    12   3  67 W13       30.12R WCI  -3
$$


CITY           SKY/WX    TMP DP  RH WIND       PRES   REMARKS
BLOOMINGTON    CLEAR      9   3  76 NW14      30.05R WCI  -7
DECATUR        CLEAR     11   4  73 W12       30.08R WCI  -3
EFFINGHAM      CLEAR     12   7  80 W10       30.10F WCI  -1
FLORA          PTCLDY    15   7  71 NW13G20   30.11S WCI   1
GALESBURG      CLEAR      6   1  81 W7        30.08F WCI  -6
JACKSONVILLE   CLEAR     13   5  69 W12       30.13S WCI   0
LACON          CLEAR     10   2  71 NW12G18   30.06F WCI  -5
LINCOLN        PTCLDY    11   5  76 W3        30.10R
LITCHFIELD     CLEAR     12   4  72 NW14      30.12R WCI  -4

CITY           SKY/WX    TMP DP  RH WIND       PRES   REMARKS
MACOMB         CLEAR      8   4  80 W10       30.13F WCI  -6
MATTOON        CLEAR      9   3  77 W14       30.04F WCI  -7
MOLINE         CLEAR      9  -1  64 NW8       30.10S WCI  -3
OLNEY          PTCLDY    14   7  73 NW10      30.10S WCI   1
PARIS          PTCLDY    11   6  79 W14       30.04S WCI  -5
PONTIAC        CLEAR     10   4  77 NW13      30.04R WCI  -5
QUINCY         CLEAR      9   2  73 NW7       30.14S WCI  -2
RANTOUL        CLEAR     11   5  75 W13       30.02R WCI  -3
ROBINSON       FLURRIES  14   8  77 W15       30.09R WCI  -2
TAYLORVILLE    CLEAR     12   5  73 W14       30.11R WCI  -3
TERRE HAUTE    CLOUDY    14   6  70 NW10      30.03S WCI   1
$$


CITY           SKY/WX    TMP DP  RH WIND       PRES   REMARKS
BURLINGTON     CLEAR      9   2  73 W6        30.11F WCI  -1
CHICAGO        PTCLDY    10   1  67 NW12      29.97R WCI  -5
DES MOINES     CLOUDY    17   6  62 N5        30.13F WCI  10
EVANSVILLE     CLOUDY    18   7  62 NW9       30.11S WCI   7
INDIANAPOLIS   FLURRIES  13   7  77 W14       29.95S WCI  -2
KANSAS CITY    CLOUDY    22  13  68 SW6       30.19F WCI  14
MILWAUKEE      CLEAR     10   0  63 NW12      29.95R WCI  -5
ST LOUIS       PTCLDY    17   6  62 NW13G18   30.16R WCI   4
$$





USA.gov is the U.S. government's official web portal to all federal, state and local government web resources and services.